This demonstration page uses our WeatherBlox Daily Observations layout. Learn more.

Left ArrowRight Arrow

Hourly Observations for December 8, 2022

Temp ( °F °C ) Dew Point ( °F °C ) Humidity (%) Winds ( mph kmh ) Pressure ( in mb ) Visibility ( mi km ) Precip ( " mm )
12:55 am 00:55 Mostly Cloudy 24 -4.4 17 -8.3 74 74 NNE 6 9 30.39 1029 10 16 0.00 0.00
1:55 am 01:55 Partly Cloudy 24 -4.6 17 -8.4 75 75 NNE 6 9 30.36 1028 10 16 0.00 0.00
2:55 am 02:55 Mostly Cloudy 23 -4.9 17 -8.5 76 76 NNE 6 9 30.36 1028 10 16 0.00 0.00
3:55 am 03:55 Cloudy 24 -4.5 18 -7.9 77 77 NNE 5 7 30.34 1027 10 16 0.00 0.00
4:55 am 04:55 Partly Cloudy 24 -4.3 18 -7.7 77 77 NNE 3 6 30.34 1028 10 16 0.00 0.00
5:55 am 05:55 Clear 24 -4.5 18 -7.8 78 78 NE 5 7 30.33 1027 10 16 0.00 0.00
6:35 am 06:35 Mostly Cloudy 25 -4 18 -8 74 74 E 5 7 30.32 1027 10 16 0.00 0.00
6:55 am 06:55 Cloudy 25 -3.9 19 -7 79 79 E 5 7 30.31 1027 10 16 0.00 0.00
7:55 am 07:55 Cloudy 28 -2.3 22 -5.8 77 77 NE 5 7 30.31 1027 10 16 0.00 0.00
8:05 am 08:05 Cloudy with Mist and Fog 28 -2 21 -6 74 74 NE 6 9 30.31 1027 5 8 0.00 0.00
8:50 am 08:50 Cloudy 30 -1 23 -5 74 74 E 3 6 30.30 1026 10 16 0.00 0.00
8:55 am 08:55 Cloudy 30 -1.2 24 -4.5 78 78 E 3 6 30.30 1026 7 11 0.00 0.00
9:55 am 09:55 Cloudy with Mist and Fog 32 0 26 -3.4 78 78 Calm 30.30 1026 2 3 0.00 0.00
10:56 am 10:56 Cloudy 33 0.5 27 -2.7 79 79 E 1 2 30.29 1026 8 13 0.00 0.00
11:41 am 11:41 Cloudy with Mist and Fog 34 1 27 -3 75 75 ENE 3 6 30.27 1025 2 3 0.00 0.00
11:55 am 11:55 Cloudy with Mist and Fog 34 1.1 28 -2.3 78 78 E 3 6 30.26 1025 2 3 0.00 0.00
12:23 pm 12:23 Cloudy with Drizzle 34 1 30 -1 86 86 E 3 6 30.24 1024 2 3 0.00 0.00
12:40 pm 12:40 Cloudy with Mist and Fog 34 1 32 0 93 93 ENE 5 7 30.23 1024 2 3 0.00 0.00
12:55 pm 12:55 Cloudy with Drizzle 35 1.6 33 0.7 94 94 E 5 7 30.22 1023 2 3 0.00 0.00
1:07 pm 13:07 Cloudy with Drizzle 36 2 34 1 93 93 NE 3 6 30.22 1023 2 3 0.00 0.00
1:22 pm 13:22 Cloudy with Mist and Fog 36 2 34 1 93 93 NE 6 9 30.20 1023 1 2 0.00 0.00
1:55 pm 13:55 Cloudy with Drizzle 36 2.1 35 1.8 98 98 ENE 3 6 30.19 1022 1 2 0.01 0.13
2:27 pm 14:27 Cloudy with Drizzle 36 2 36 2 100 100 Calm 30.18 1022 1 2 0.00 0.00
2:32 pm 14:32 Cloudy with Drizzle 36 2 36 2 100 100 Calm 30.18 1022 1 2 0.00 0.00
2:56 pm 14:56 Cloudy with Drizzle 37 2.6 37 2.5 99 99 E 3 6 30.17 1022 1 2 0.00 0.00
3:43 pm 15:43 Cloudy with Drizzle 37 3 37 3 100 100 ENE 3 6 30.17 1022 1 1 0.00 0.00
3:55 pm 15:55 Cloudy with Drizzle 37 3 37 2.9 99 99 E 5 7 30.16 1021 1 1 0.00 0.00
4:32 pm 16:32 Cloudy with Drizzle 37 3 37 3 100 100 NE 3 6 30.16 1021 1 1 0.00 0.00
4:55 pm 16:55 Cloudy with Drizzle 38 3.1 37 3 99 99 NE 5 7 30.16 1021 1 1 0.02 0.51
5:07 pm 17:07 Cloudy with Drizzle 37 3 37 3 100 100 NE 3 6 30.16 1021 1 1 0.00 0.00
5:55 pm 17:55 Cloudy with Drizzle 38 3.1 38 3.1 100 100 ENE 3 6 30.16 1021 1 1 0.02 0.51
6:55 pm 18:55 Cloudy with Drizzle 37 3 37 3 100 100 E 6 9 30.14 1021 1 1 0.02 0.51
7:55 pm 19:55 Cloudy with Drizzle 38 3.2 38 3.2 100 100 ESE 7 11 30.13 1020 1 2 0.00 0.00
8:55 pm 20:55 Cloudy with Drizzle 38 3.4 38 3.4 100 100 ESE 7 11 30.10 1019 1 1 0.01 0.25
9:28 pm 21:28 Cloudy with Drizzle 37 3 37 3 100 100 SE 5 7 30.10 1019 1 1 0.00 0.00
9:55 pm 21:55 Cloudy with Drizzle 38 3.3 38 3.3 100 100 SE 6 9 30.09 1019 1 1 0.01 0.25
10:24 pm 22:24 Cloudy with Drizzle 39 4 39 4 100 100 S 7 11 30.07 1018 1 1 0.00 0.00
10:44 pm 22:44 Cloudy with Drizzle 37 3 37 3 100 100 SW 3 6 30.07 1018 1 1 0.00 0.00
10:55 pm 22:55 Cloudy with Drizzle 38 3.4 38 3.4 100 100 SW 5 7 30.07 1018 1 1 0.02 0.51
11:40 pm 23:40 Cloudy with Drizzle 37 3 37 3 100 100 W 10 17 30.08 1019 2 2 0.00 0.00
11:55 pm 23:55 Cloudy with Mist and Fog 36 2 36 2 100 100 W 8 13 30.08 1019 2 2 0.01 0.13

Powered by AerisWeather